Regional Weather Roundup
Issued by NWS Memphis, TN

Home | Current Version | Previous Version | Text Only | Print | Product List | Glossary On
Versions: 1 2 3 4 5 6 7 8 9 10 11 12 13 14 15 16 17 18 19 20 21 22 23 24 25 26 27 28 29 30 31 32 33 34 35 36 37 38 39 40 41 42 43 44 45 46 47 48 49 50
000
ASUS44 KMEG 251800
RWRMEG
MEMPHIS CWA HOURLY WEATHER ROUNDUP
NATIONAL WEATHER SERVICE MEMPHIS TN
100 PM CDT SUN JUN 25 2017

...WEST TENNESSEE...

CITY           SKY/WX    TMP DP  RH WIND       PRES   REMARKS
MEMPHIS INTL   MOSUNNY   84  55  36 NE9       30.25S
6HR MIN TEMP:  69; 6HR MAX TEMP:  84;

NWS MEMPHIS      N/A     82 N/A N/A MISG        N/A
JACKSON        SUNNY     84  53  34 MISG      30.25S
6HR MIN TEMP:  65; 6HR MAX TEMP:  84;



...EASTERN ARKANSAS...

CITY           SKY/WX    TMP DP  RH WIND       PRES   REMARKS
JONESBORO      SUNNY     84  49  29 NW3       30.25F
6HR MIN TEMP:  67; 6HR MAX TEMP:  84;

WEST MEMPHIS   SUNNY     82  59  45 NE7       30.24S
6HR MIN TEMP:  66; 6HR MAX TEMP:  82;

BATESVILLE     SUNNY     82  54  36 CALM      30.27F
6HR MIN TEMP:  64; 6HR MAX TEMP:  82;

WALNUT RIDGE   SUNNY     82  55  39 CALM      30.25F
6HR MIN TEMP:  64; 6HR MAX TEMP:  82;

BLYTHEVILLE    SUNNY     83  50  31 CALM      30.26S
6HR MIN TEMP:  67; 6HR MAX TEMP:  83;

SEARCY         SUNNY     82  57  42 N8        30.28S
6HR MIN TEMP:  63; 6HR MAX TEMP:  83;

STUTTGART      SUNNY    N/A N/A N/A N7        30.26S
PINE BLUFF     SUNNY     82  60  47 E9        30.26S
6HR MIN TEMP:  68; 6HR MAX TEMP:  82;

MONTICELLO     SUNNY     83  58  42 NE10      30.25S
6HR MIN TEMP:  69; 6HR MAX TEMP:  83;



...NORTH MISSISSIPPI...

CITY           SKY/WX    TMP DP  RH WIND       PRES   REMARKS
TUPELO         PTSUNNY   81  56  42 N3        30.24S
6HR MIN TEMP:  67; 6HR MAX TEMP:  81;

OLIVE BRANCH   MOSUNNY  N/A N/A N/A NE12      30.24F
TUNICA           N/A     79  59  50 NE6       30.25F
GREENWOOD      CLOUDY    77  60  55 NE7       30.24F
6HR MIN TEMP:  68; 6HR MAX TEMP:  78;

COLUMBUS       CLOUDY    73  65  76 CALM      30.24S
6HR MIN TEMP:  68; 6HR MAX TEMP:  73;

STARKVILLE     CLOUDY    73  61  64 N3        30.27R
GOLDEN TRIANGL MOSUNNY   73  59  60 NE7       30.21S


...SOUTHEAST MISSOURI...

CITY           SKY/WX    TMP DP  RH WIND       PRES   REMARKS
KENNETT        SUNNY     82  50  32 VRB6      30.24S
MALDEN         SUNNY     82  48  30 CALM      30.26S
WEST PLAINS    SUNNY     83  48  29 VRB3      30.28S
6HR MIN TEMP:  61; 6HR MAX TEMP:  84;

POPLAR BLUFF   SUNNY     83  53  35 VRB5      30.23F
6HR MIN TEMP:  61; 6HR MAX TEMP:  84;

CAPE GIRARDEAU SUNNY     82  52  35 W8        30.21F
6HR MIN TEMP:  59; 6HR MAX TEMP:  82;



...NORTHWEST ALABAMA...

CITY           SKY/WX    TMP DP  RH WIND       PRES   REMARKS
MUSCLE SHOALS  MOSUNNY   83  51  33 N7        30.24S
6HR MIN TEMP:  68; 6HR MAX TEMP:  83;



...MIDDLE TENNESSEE...

CITY           SKY/WX    TMP DP  RH WIND       PRES   REMARKS
NASHVILLE      MOSUNNY   82  49  31 MISG      30.23F
6HR MIN TEMP:  66; 6HR MAX TEMP:  83;

CLARKSVILLE    SUNNY     80  48  32 VRB5      30.23S
6HR MIN TEMP:  60; 6HR MAX TEMP:  80;



...WESTERN KENTUCKY...

CITY           SKY/WX    TMP DP  RH WIND       PRES   REMARKS
PADUCAH        SUNNY     82  50  32 W13       30.22F
6HR MIN TEMP:  62; 6HR MAX TEMP:  82;

FORT CAMPBELL  SUNNY     79  50  35 NW8       30.23S
6HR MIN TEMP:  62; 6HR MAX TEMP:  79;



...CENTRAL ARKANSAS...

CITY           SKY/WX    TMP DP  RH WIND       PRES   REMARKS
LITTLE ROCK    MOSUNNY   82  58  43 VRB3      30.25F
6HR MIN TEMP:  67; 6HR MAX TEMP:  83;



SKY/WX REPORTED AS FAIR MEANS FEW OR NO CLOUDS BELOW
12 THOUSAND FEET.




USA.gov is the U.S. government's official web portal to all federal, state and local government web resources and services.